Regional Weather Roundup
Issued by NWS

Home | Current Version | Previous Version | Graphics & Text | Print | Product List | Glossary On
Versions: 1 2 3 4 5 6 7 8 9 10 11 12 13 14 15 16 17 18 19 20 21 22 23 24 25 26 27 28 29 30 31 32 33 34 35 36 37 38 39 40 41 42 43 44 45 46 47 48 49 50
000
ASUS43 KIND 251709
RWRIN

WEATHER ROUNDUP FOR INDIANA
NATIONAL WEATHER SERVICE INDIANAPOLIS IN
100 PM EDT FRI JUL 25 2014

NOTE: "FAIR" INDICATES FEW OR NO CLOUDS BELOW 12,000 FEET WITH NO
SIGNIFICANT WEATHER AND/OR OBSTRUCTIONS TO VISIBILITY.

* - STATION DOES NOT REPORT WEATHER SUCH AS PRECIPITATION OR FOG.

+ - STATION NOT QUALITY CONTROLLED BY THE NATIONAL WEATHER SERVICE.
    USE DATA WITH CAUTION...ESPECIALLY DEWPOINT AND RELATIVE
    HUMIDITY OBSERVATIONS.

INZ001>003-010>013-019-020-251800-
NORTHWEST INDIANA

CITY           SKY/WX    TMP DP  RH WIND       PRES   REMARKS
GARY /AIRPORT/ CLOUDY    73  57  56 S6        30.01F
KNOX *+        CLOUDY    73  55  54 SW9       30.03F
LA PORTE +     CLOUDY    73  55  53 S9        30.04F
MICHIGAN CITY+ CLOUDY    72  57  60 S6        30.03F
MONTICELLO +   PTSUNNY   72  57  60 SW10      30.06S
RENSSELAER +   CLOUDY    70  59  68 SW7       30.05F
VALPARAISO     CLOUDY    75  56  51 S13G20    30.04F

$$

LMZ046-743>745-251800-
SOUTHERN LAKE MICHIGAN

STATION/POSITION TIME  TEMP WIND        PRES
                       AIR  DIR/SP/G
                 (UTC) (F)  (DEG/KT/KT) (MB)
BURNS HARBOR     1700   74  190/ 13/ 16 1016.9S
MICHIGAN CITY    1700   70  160/  8/ 12   N/A

$$

INZ004-005-014>016-021>024-251800-
NORTH CENTRAL INDIANA

CITY           SKY/WX    TMP DP  RH WIND       PRES   REMARKS
ELKHART        CLOUDY    72  54  53 S6        30.05F
GOSHEN         CLOUDY    74  55  51 SW9       30.05F
LOGANSPORT +   MOSUNNY   72  54  53 SW6       30.07S
PERU/GRISSOM   MOSUNNY   73  57  56 S9        30.06F
ROCHESTER +    CLOUDY    75  55  50 S9        30.06F
SOUTH BEND     CLOUDY    74  56  53 S9        30.04F
WARSAW +       CLOUDY    72  55  56 SW8       30.06F

$$

INZ006>009-017-018-025>027-251800-
NORTHEAST INDIANA

CITY           SKY/WX    TMP DP  RH WIND       PRES   REMARKS
ANGOLA *+      MOSUNNY   73  54  49 W9        30.06F
AUBURN +       PTSUNNY   75  50  41 S6        30.07F
FORT WAYNE     CLOUDY    72  53  51 SW8       30.07F
HUNTINGTON +   CLOUDY    73  54  50 SW7       30.06F

$$

INZ028-029-035-036-043>045-051>053-251800-
WEST CENTRAL INDIANA

CITY           SKY/WX    TMP DP  RH WIND       PRES   REMARKS
GREENCASTLE +  MOSUNNY   72  55  56 S9        30.08F
LAFAYETTE      CLOUDY    75  56  51 SW9       30.06F
TERRE HAUTE    CLOUDY    73  56  54 S9        30.07F

$$

INZ030>032-037>040-046>048-054>057-064-065-251800-
CENTRAL INDIANA

CITY           SKY/WX    TMP DP  RH WIND       PRES   REMARKS
ANDERSON       SUNNY     73  52  46 S12       30.09F
CP ATTERBURY + MOSUNNY   73  54  49 S6        30.08F
COLUMBUS       SUNNY     73  54  49 CALM      30.09F
INDIANAPOLIS   PTSUNNY   71  53  52 SW7       30.08F
-EAGLE CREEK   SUNNY     74  53  48 SW6       30.08F
KOKOMO *+      MOSUNNY   73  55  53 SW6       30.06F
MARION +       MOSUNNY   73  53  48 S7        30.08F
MT COMFORT *+  SUNNY     73  57  56 S5        30.09F
SHELBYVILLE    SUNNY     75  56  51 VRB3      30.08F
ZIONSVILLE +   SUNNY     74  51  44 SW5       30.08F

$$

INZ033-034-041-042-049-050-058-059-251800-
EAST CENTRAL INDIANA

CITY           SKY/WX    TMP DP  RH WIND       PRES   REMARKS
MUNCIE         MOSUNNY   74  52  46 VRB3      30.08F

$$

INZ060-061-067>069-081>083-085>088-251800-
SOUTHWEST INDIANA

CITY           SKY/WX    TMP DP  RH WIND       PRES   REMARKS
EVANSVILLE     PTSUNNY   79  53  40 VRB3      30.06F
HUNTINGBURG *+ PTSUNNY   75  55  50 S6        30.08F
WASHINGTON +   CLOUDY    73  55  53 CALM      30.06F

$$

INZ062-063-066-070>080-084-089>092-251800-
SOUTH CENTRAL AND SOUTHEAST INDIANA

CITY           SKY/WX    TMP DP  RH WIND       PRES   REMARKS
BLOOMINGTON    PTSUNNY   74  57  55 SW7       30.08F

$$




USA.gov is the U.S. government's official web portal to all federal, state and local government web resources and services.